KK5DC Weather Reports


Display with metric or nautical units.
time (UTC)temp
F
wind
direction
speed
MPH
gust
MPH
rain 1hr
in
rain 24hr
in
rain mn
in
humidity
%
barometer
mb
20260508073509 61 24 0.0 2.0 0.00 0.00 0.00 83 1015.0
20260508073502 61 332 1.0 4.0 0.00 0.00 0.00 83 1014.5
20260508073028 61 306 1.0 3.0 0.00 0.00 0.00 83 1014.9
20260508073012 61 327 1.0 4.0 0.00 0.00 0.00 83 1014.4
20260508072508 61 67 1.0 3.0 0.00 0.00 0.00 84 1014.8
20260508072503 61 333 1.0 3.0 0.00 0.00 0.00 84 1014.3
20260508072009 61 350 0.0 2.0 0.00 0.00 0.00 84 1015.0
20260508072007 61 317 1.0 2.0 0.00 0.00 0.00 84 1014.5
20260508071524 61 322 1.0 2.0 0.00 0.00 0.00 83 1014.7
20260508071516 61 117 0.0 2.0 0.00 0.00 0.00 83 1015.2
20260508071008 61 319 1.0 3.0 0.00 0.00 0.00 84 1015.0
20260508071003 61 12 0.0 3.0 0.00 0.00 0.00 84 1015.4
20260508070512 61 319 0.0 2.0 0.00 0.00 0.00 84 1015.2
20260508070506 61 22 0.0 3.0 0.00 0.00 0.00 84 1015.7
20260508070026 61 319 1.0 2.0 0.00 0.00 0.00 83 1015.2
20260508070024 61 26 0.0 3.0 0.00 0.00 0.00 83 1015.7
20260508065509 61 352 0.0 2.0 0.00 0.00 0.00 83 1015.8
20260508065503 61 319 0.0 2.0 0.00 0.00 0.00 83 1015.3
20260508065007 61 319 0.0 2.0 0.00 0.00 0.00 84 1015.4
20260508064546 61 12 0.0 2.0 0.00 0.00 0.00 83 1015.7
20260508064526 61 319 0.0 2.0 0.00 0.00 0.00 83 1015.3
20260508064010 61 12 0.0 2.0 0.00 0.00 0.00 84 1015.9
20260508064007 61 319 0.0 2.0 0.00 0.00 0.00 84 1015.4
20260508063508 61 319 0.0 2.0 0.00 0.00 0.00 84 1015.4
20260508063027 61 17 0.0 2.0 0.00 0.00 0.00 83 1015.9
20260508062511 61 17 0.0 2.0 0.00 0.00 0.00 83 1016.0
20260508062503 61 319 0.0 2.0 0.00 0.00 0.00 83 1015.5
20260508062013 61 20 0.0 2.0 0.00 0.00 0.00 84 1016.0
20260508062005 61 319 0.0 2.0 0.00 0.00 0.00 84 1015.5
20260508061521 61 13 0.0 2.0 0.00 0.00 0.00 84 1016.1
20260508061515 61 319 0.0 2.0 0.00 0.00 0.00 84 1015.7
20260508061009 61 319 1.0 2.0 0.00 0.00 0.00 85 1015.6
20260508061006 61 330 0.0 2.0 0.00 0.00 0.00 85 1016.1
20260508060508 61 319 0.0 2.0 0.00 0.00 0.00 84 1015.8
20260508060505 61 342 0.0 3.0 0.00 0.00 0.00 84 1016.3
20260508060019 60 315 0.0 3.0 0.00 0.00 0.00 85 1015.7
20260508055508 60 315 0.0 3.0 0.00 0.00 0.00 85 1015.4
20260508055505 60 352 0.0 3.0 0.00 0.00 0.00 85 1015.9
20260508055006 60 329 0.0 3.0 0.00 0.00 0.00 85 1015.4
20260508054540 60 24 0.0 2.0 0.00 0.00 0.00 85 1015.6
20260508054513 60 329 1.0 3.0 0.00 0.00 0.00 85 1015.1
20260508054007 60 329 0.0 2.0 0.00 0.00 0.00 85 1015.2
20260508053509 60 329 1.0 2.0 0.00 0.00 0.00 85 1014.9
20260508053028 60 15 1.0 2.0 0.00 0.00 0.00 86 1015.4
20260508052507 60 28 0.0 2.0 0.00 0.00 0.00 85 1015.7
20260508052011 60 325 0.0 2.0 0.00 0.00 0.00 85 1015.3
20260508051530 60 5 0.0 2.0 0.00 0.00 0.00 85 1015.6
20260508051528 60 12 1.0 2.0 0.00 0.00 0.00 85 1015.1
20260508051010 60 352 0.0 2.0 0.00 0.00 0.00 86 1015.4
20260508051005 60 59 0.0 2.0 0.00 0.00 0.00 86 1014.8
20260508050507 60 37 0.0 2.0 0.00 0.00 0.00 85 1015.4
20260508050505 60 303 0.0 2.0 0.00 0.00 0.00 86 1014.9
20260508050031 60 38 0.0 2.0 0.00 0.00 0.00 86 1015.8
20260508050019 60 302 0.0 2.0 0.00 0.00 0.00 86 1015.3
20260508045512 60 281 0.0 2.0 0.00 0.00 0.00 86 1015.5
20260508045507 60 38 0.0 2.0 0.00 0.00 0.00 86 1016.0
20260508045007 59 38 0.0 2.0 0.00 0.00 0.00 86 1015.7
20260508045004 59 281 0.0 2.0 0.00 0.00 0.00 86 1015.2
20260508044525 59 264 0.0 2.0 0.00 0.00 0.00 86 1015.2
20260508044504 59 38 0.0 2.0 0.00 0.00 0.00 86 1015.7
20260508044008 60 264 0.0 2.0 0.00 0.00 0.00 85 1015.3
20260508044003 60 38 0.0 2.0 0.00 0.00 0.00 85 1015.8
20260508043514 60 264 0.0 2.0 0.00 0.00 0.00 85 1015.5
20260508043502 60 38 0.0 2.0 0.00 0.00 0.00 85 1016.0
20260508043024 60 264 0.0 2.0 0.00 0.00 0.00 85 1015.6
20260508043012 60 38 0.0 2.0 0.00 0.00 0.00 84 1016.1
20260508042507 60 264 0.0 2.0 0.00 0.00 0.00 84 1015.9
20260508042503 60 38 0.0 2.0 0.00 0.00 0.00 84 1016.4
20260508042012 60 264 0.0 2.0 0.00 0.00 0.00 84 1015.9
20260508042005 60 38 0.0 2.0 0.00 0.00 0.00 84 1016.5
20260508041518 60 264 0.0 2.0 0.00 0.00 0.00 85 1016.1
20260508041512 60 38 0.0 2.0 0.00 0.00 0.00 85 1016.6
20260508041008 60 264 0.0 2.0 0.00 0.00 0.00 85 1016.3
20260508041003 60 38 0.0 2.0 0.00 0.00 0.00 85 1016.8
20260508040516 60 264 0.0 2.0 0.00 0.00 0.00 84 1016.5
20260508040504 60 38 0.0 0.0 0.00 0.00 0.00 84 1017.0
20260508040031 60 264 0.0 2.0 0.00 0.00 0.00 84 1016.4
20260508040017 60 38 0.0 2.0 0.00 0.00 0.00 84 1016.9
20260508035508 60 38 0.0 2.0 0.00 0.00 0.00 84 1016.8
20260508035505 60 264 1.0 2.0 0.00 0.00 0.00 84 1016.4
20260508035009 60 295 0.0 2.0 0.00 0.00 0.00 84 1016.1
20260508035004 60 38 0.0 2.0 0.00 0.00 0.00 84 1016.6
20260508034528 60 38 0.0 2.0 0.00 0.00 0.00 83 1016.6
20260508034520 60 295 0.0 2.0 0.00 0.00 0.00 83 1016.0
20260508034008 60 306 0.0 2.0 0.00 0.00 0.00 84 1016.1
20260508033516 60 316 0.0 2.0 0.00 0.00 0.00 83 1015.8
20260508033502 60 38 0.0 2.0 0.00 0.00 0.00 83 1016.4
20260508033023 60 316 0.0 2.0 0.00 0.00 0.00 82 1015.6
20260508033006 60 38 0.0 2.0 0.00 0.00 0.00 82 1016.2
20260508032512 60 316 0.0 2.0 0.00 0.00 0.00 82 1015.6
20260508032504 60 38 0.0 2.0 0.00 0.00 0.00 82 1016.3
20260508032015 61 316 0.0 2.0 0.00 0.00 0.00 82 1015.7
20260508032003 61 38 0.0 2.0 0.00 0.00 0.00 82 1016.3
20260508031527 61 316 0.0 2.0 0.00 0.00 0.00 82 1015.8
20260508031508 61 10 0.0 2.0 0.00 0.00 0.00 82 1016.4
20260508031008 61 305 1.0 2.0 0.00 0.00 0.00 81 1015.6
20260508031002 61 155 0.0 2.0 0.00 0.00 0.00 81 1016.2
20260508030508 61 157 0.0 2.0 0.00 0.00 0.00 79 1016.1
20260508030505 61 305 0.0 2.0 0.00 0.00 0.00 79 1015.5
20260508030014 61 138 0.0 2.0 0.00 0.00 0.00 79 1015.4
20260508030004 61 352 0.0 2.0 0.00 0.00 0.00 79 1014.7
20260508025507 61 128 0.0 2.0 0.00 0.00 0.00 79 1015.2
20260508025504 61 13 0.0 2.0 0.00 0.00 0.00 79 1014.5
20260508025010 61 13 0.0 2.0 0.00 0.00 0.00 79 1014.6
20260508025003 61 118 0.0 2.0 0.00 0.00 0.00 79 1015.3
20260508024522 61 343 1.0 2.0 0.00 0.00 0.00 79 1014.6
20260508024520 61 119 0.0 2.0 0.00 0.00 0.00 79 1015.2
20260508024003 61 119 1.0 2.0 0.00 0.00 0.00 79 1015.0
20260508023504 61 36 0.0 2.0 0.00 0.00 0.00 79 1014.9
20260508023022 61 159 0.0 2.0 0.00 0.00 0.00 79 1014.7
20260508023004 61 63 0.0 3.0 0.00 0.00 0.00 79 1014.0
20260508022509 61 120 0.0 2.0 0.00 0.00 0.00 80 1014.7
20260508022503 61 74 0.0 3.0 0.00 0.00 0.00 80 1014.0
20260508022006 62 76 0.0 3.0 0.00 0.00 0.00 78 1014.9
20260508022004 62 70 0.0 2.0 0.00 0.00 0.00 78 1014.1
20260508021515 62 70 0.0 2.0 0.00 0.00 0.00 79 1014.4
20260508021506 62 167 0.0 3.0 0.00 0.00 0.00 79 1015.1
20260508021003 62 63 0.0 2.0 0.00 0.00 0.00 78 1015.2
20260508020505 62 345 1.0 2.0 0.00 0.00 0.00 78 1014.4
20260508020503 62 342 1.0 2.0 0.00 0.00 0.00 78 1015.1
20260508020013 62 167 0.0 2.0 0.00 0.00 0.00 78 1015.0
20260508015506 61 64 1.0 3.0 0.00 0.00 0.00 80 1014.3
20260508015503 61 83 1.0 2.0 0.00 0.00 0.00 80 1015.1
20260508015010 62 342 0.0 2.0 0.00 0.00 0.00 78 1015.7
20260508015002 62 329 1.0 3.0 0.00 0.00 0.00 78 1015.1
20260508014508 62 26 0.0 2.0 0.00 0.00 0.00 79 1015.8
20260508014010 62 327 0.0 2.0 0.00 0.00 0.00 78 1015.6
20260508014008 62 337 0.0 2.0 0.00 0.00 0.00 78 1015.0
20260508013512 62 337 0.0 4.0 0.00 0.00 0.00 79 1014.6
20260508013507 62 23 0.0 2.0 0.00 0.00 0.00 79 1015.3
20260508013007 62 331 1.0 4.0 0.00 0.00 0.00 78 1014.3
20260508012506 62 150 0.0 2.0 0.00 0.00 0.00 77 1014.8
20260508012012 62 126 0.0 2.0 0.00 0.00 0.00 78 1015.1
20260508012005 62 327 0.0 3.0 0.00 0.00 0.00 78 1014.3
20260508011530 62 13 0.0 2.0 0.00 0.00 0.00 77 1015.1
20260508011505 62 319 1.0 2.0 0.00 0.00 0.00 77 1014.4
20260508011003 62 76 0.0 2.0 0.00 0.00 0.00 78 1015.3
20260508010505 62 360 0.0 2.0 0.00 0.00 0.00 76 1015.6
20260508010503 62 331 1.0 2.0 0.00 0.00 0.00 76 1015.0
20260508010021 62 352 1.0 2.0 0.00 0.00 0.00 76 1015.7
20260508010014 62 336 0.0 2.0 0.00 0.00 0.00 76 1015.0
20260508005505 63 322 0.0 4.0 0.00 0.00 0.00 77 1015.1
20260508005503 63 332 0.0 4.0 0.00 0.00 0.00 77 1015.7
20260508005006 63 319 1.0 3.0 0.00 0.00 0.00 75 1015.2
20260508005004 63 329 1.0 4.0 0.00 0.00 0.00 75 1015.9
20260508004529 63 76 0.0 2.0 0.00 0.00 0.00 76 1015.9
20260508004527 63 331 0.0 3.0 0.00 0.00 0.00 76 1015.2
20260508004008 63 334 0.0 2.0 0.00 0.00 0.00 74 1015.6
20260508003507 63 334 0.0 4.0 0.00 0.00 0.00 75 1015.4
20260508003503 63 120 0.0 3.0 0.00 0.00 0.00 75 1016.1
20260508003021 63 332 1.0 4.0 0.00 0.00 0.00 75 1015.5
20260508003014 63 352 0.0 3.0 0.00 0.00 0.00 75 1016.1
20260508002508 63 336 0.0 3.0 0.00 0.00 0.00 76 1015.2
20260508002003 63 326 0.0 3.0 0.00 0.00 0.00 74 1016.0
20260508001517 64 323 1.0 3.0 0.00 0.00 0.00 74 1015.4
20260508001511 64 5 1.0 3.0 0.00 0.00 0.00 74 1016.0
20260508001009 64 331 1.0 3.0 0.00 0.00 0.00 73 1015.7
20260508001007 64 350 1.0 2.0 0.00 0.00 0.00 73 1016.3
20260508000511 64 57 1.0 3.0 0.00 0.00 0.00 74 1016.3
20260508000504 64 342 0.0 3.0 0.00 0.00 0.00 74 1015.7
20260508000008 64 348 1.0 4.0 0.00 0.00 0.00 72 1016.6
20260507235506 64 32 1.0 4.0 0.00 0.00 0.00 71 1016.7
20260507235504 64 331 1.0 4.0 0.00 0.00 0.00 71 1016.1
20260507235006 64 36 1.0 4.0 0.00 0.00 0.00 73 1016.5
20260507235004 64 331 1.0 4.0 0.00 0.00 0.00 73 1016.0
20260507234513 64 32 0.0 5.0 0.00 0.00 0.00 71 1016.4
20260507234509 64 36 0.0 5.0 0.00 0.00 0.00 71 1015.8
20260507234005 64 5 2.0 5.0 0.00 0.00 0.00 71 1016.3
20260507233507 65 5 0.0 4.0 0.00 0.00 0.00 71 1016.2
20260507233504 65 336 1.0 5.0 0.00 0.00 0.00 71 1015.6
20260507233028 65 331 1.0 5.0 0.00 0.00 0.00 70 1015.8
20260507233023 65 14 0.0 4.0 0.00 0.00 0.00 70 1016.4
20260507232504 65 20 1.0 3.0 0.00 0.00 0.00 70 1016.1
20260507232012 65 327 1.0 4.0 0.00 0.00 0.00 71 1015.6
20260507232007 65 321 0.0 3.0 0.00 0.00 0.00 71 1016.2
20260507231526 65 327 2.0 5.0 0.00 0.00 0.00 69 1015.6
20260507231521 65 360 1.0 3.0 0.00 0.00 0.00 69 1016.3
20260507231007 65 338 1.0 5.0 0.00 0.00 0.00 70 1016.6
20260507230507 65 325 3.0 6.0 0.00 0.00 0.00 70 1016.0
20260507230504 65 5 2.0 5.0 0.00 0.00 0.00 70 1016.5
20260507230024 65 320 1.0 6.0 0.00 0.00 0.00 71 1016.0
20260507230020 65 55 1.0 5.0 0.00 0.00 0.00 71 1016.7
20260507225508 66 350 2.0 5.0 0.00 0.00 0.00 70 1016.9
20260507225504 66 336 2.0 5.0 0.00 0.00 0.00 70 1016.3
20260507225004 65 346 1.0 5.0 0.00 0.00 0.00 69 1016.4
20260507224517 66 348 2.0 8.0 0.00 0.00 0.00 68 1017.1
20260507224511 66 335 2.0 8.0 0.00 0.00 0.00 68 1016.5
20260507224004 66 320 2.0 9.0 0.00 0.00 0.00 68 1016.5
20260507224002 66 320 2.0 9.0 0.00 0.00 0.00 68 1017.1
20260507223504 66 221 2.0 9.0 0.00 0.00 0.00 68 1017.0
20260507223016 66 51 2.0 7.0 0.00 0.00 0.00 68 1017.2
20260507222516 66 13 1.0 4.0 0.00 0.00 0.00 68 1016.9
20260507222505 66 331 1.0 5.0 0.00 0.00 0.00 68 1016.3
20260507222007 66 337 1.0 4.0 0.00 0.00 0.00 69 1017.1
20260507221517 66 334 2.0 4.0 0.00 0.00 0.00 69 1016.2
20260507221511 66 346 2.0 4.0 0.00 0.00 0.00 69 1016.8
20260507221008 66 71 2.0 9.0 0.00 0.00 0.00 68 1015.8
20260507221005 66 11 2.0 6.0 0.00 0.00 0.00 68 1016.4
20260507220517 66 330 0.0 10.0 0.00 0.00 0.00 70 1016.5
20260507220509 66 331 1.0 10.0 0.00 0.00 0.00 70 1015.8
20260507220025 66 336 2.0 10.0 0.00 0.00 0.00 69 1015.9
20260507220023 66 37 1.0 10.0 0.00 0.00 0.00 69 1016.5
20260507215510 66 28 2.0 5.0 0.00 0.00 0.00 66 1016.8
20260507215506 66 333 2.0 8.0 0.00 0.00 0.00 66 1016.3
20260507215009 67 346 2.0 11.0 0.00 0.00 0.00 68 1016.0
20260507215007 67 298 1.0 11.0 0.00 0.00 0.00 68 1016.5
20260507214529 67 352 3.0 11.0 0.00 0.00 0.00 67 1016.6
20260507214003 67 16 2.0 8.0 0.00 0.00 0.00 68 1017.0
20260507213503 67 323 1.0 10.0 0.00 0.00 0.00 68 1016.3
20260507213014 66 27 2.0 10.0 0.00 0.00 0.00 67 1016.0
20260507213011 66 346 2.0 10.0 0.00 0.00 0.00 67 1016.6
20260507212508 66 41 3.0 6.0 0.00 0.00 0.00 67 1016.7
20260507212505 66 18 3.0 6.0 0.00 0.00 0.00 67 1016.1
20260507212008 66 80 2.0 8.0 0.00 0.00 0.00 69 1016.7
20260507212005 66 331 2.0 8.0 0.00 0.00 0.00 69 1016.1
20260507211523 66 13 3.0 11.0 0.00 0.00 0.00 70 1016.7
20260507211006 65 342 4.0 11.0 0.00 0.00 0.00 69 1016.8
20260507210502 65 327 4.0 10.0 0.00 0.00 0.00 69 1016.3
20260507210033 66 327 4.0 10.0 0.00 0.00 0.00 69 1016.5
20260507210016 66 12 3.0 7.0 0.00 0.00 0.00 69 1017.1
20260507205511 66 360 2.0 6.0 0.00 0.00 0.00 69 1017.1
20260507205508 66 327 2.0 8.0 0.00 0.00 0.00 69 1016.5
20260507205009 66 22 1.0 5.0 0.00 0.00 0.00 70 1017.1
20260507205007 66 321 2.0 6.0 0.00 0.00 0.00 70 1016.5
20260507204516 66 281 1.0 11.0 0.00 0.00 0.00 67 1017.2
20260507204514 66 343 1.0 11.0 0.00 0.00 0.00 67 1016.6
20260507204009 66 5 2.0 11.0 0.00 0.00 0.00 67 1017.0
20260507203512 66 332 5.0 12.0 0.00 0.00 0.00 66 1016.3
20260507203509 66 360 4.0 11.0 0.00 0.00 0.00 66 1016.9
20260507203013 67 316 2.0 9.0 0.00 0.00 0.00 67 1017.0
20260507203009 67 330 3.0 9.0 0.00 0.00 0.00 67 1016.4
20260507202507 66 360 3.0 9.0 0.00 0.00 0.00 69 1016.4
20260507202505 66 352 1.0 9.0 0.00 0.00 0.00 69 1017.0
20260507202011 65 333 1.0 8.0 0.00 0.00 0.00 70 1017.0
20260507202005 65 348 1.0 10.0 0.00 0.00 0.00 70 1016.5
20260507201518 65 5 2.0 8.0 0.00 0.00 0.00 69 1017.0
20260507201007 65 360 3.0 8.0 0.00 0.00 0.00 69 1017.1
20260507200508 65 348 3.0 8.0 0.00 0.00 0.00 73 1016.1
20260507200506 65 302 1.0 8.0 0.00 0.00 0.00 73 1016.7
20260507200027 64 340 2.0 6.0 0.00 0.00 0.00 74 1016.4
20260507200021 64 344 1.0 6.0 0.00 0.00 0.00 74 1017.1
20260507195506 64 323 2.0 12.0 0.00 0.00 0.00 72 1016.6
20260507195503 64 13 2.0 12.0 0.00 0.00 0.00 72 1017.2
20260507195007 65 44 3.0 12.0 0.00 0.00 0.00 72 1017.5
20260507194535 65 342 3.0 6.0 0.00 0.00 0.00 71 1017.2
20260507194526 65 291 2.0 9.0 0.00 0.00 0.00 70 1017.9
20260507194010 65 335 1.0 9.0 0.00 0.00 0.00 70 1017.9
20260507193506 64 340 5.0 10.0 0.00 0.00 0.00 69 1017.1
20260507193503 64 34 4.0 9.0 0.00 0.00 0.00 69 1017.7
20260507193027 65 321 2.0 9.0 0.00 0.00 0.00 72 1017.6
20260507193006 65 341 2.0 8.0 0.00 0.00 0.00 72 1018.2
20260507192510 64 340 3.0 10.0 0.00 0.00 0.00 70 1017.7
20260507192505 64 346 1.0 10.0 0.00 0.00 0.00 70 1018.3
20260507192011 64 322 2.0 10.0 0.00 0.00 0.00 69 1017.6
20260507192006 64 352 1.0 10.0 0.00 0.00 0.00 69 1018.2
20260507191514 65 40 2.0 11.0 0.00 0.00 0.00 68 1018.2
20260507191008 66 318 3.0 10.0 0.00 0.00 0.00 70 1018.2
20260507191004 66 338 3.0 10.0 0.00 0.00 0.00 70 1017.5
20260507190507 65 341 4.0 10.0 0.00 0.00 0.00 69 1017.4
20260507190017 66 12 4.0 9.0 0.00 0.00 0.00 69 1018.2
20260507185507 66 318 1.0 11.0 0.00 0.00 0.00 69 1018.2
20260507185010 66 312 5.0 10.0 0.00 0.00 0.00 68 1017.8
20260507185003 66 350 3.0 11.0 0.00 0.00 0.00 68 1018.4
20260507184526 67 322 5.0 10.0 0.00 0.00 0.00 67 1017.7
20260507184512 67 360 3.0 10.0 0.00 0.00 0.00 67 1018.3
20260507184007 67 328 3.0 10.0 0.00 0.00 0.00 68 1017.7
20260507184004 67 335 3.0 10.0 0.00 0.00 0.00 68 1018.4
20260507183511 67 325 2.0 10.0 0.00 0.00 0.00 68 1017.3
20260507183505 67 323 2.0 9.0 0.00 0.00 0.00 68 1017.9
20260507183034 67 352 4.0 10.0 0.00 0.00 0.00 67 1017.0
20260507183010 67 134 2.0 7.0 0.00 0.00 0.00 67 1017.7
20260507182509 67 323 2.0 12.0 0.00 0.00 0.00 71 1017.3
20260507182503 67 13 1.0 11.0 0.00 0.00 0.00 71 1018.0
20260507182013 66 15 3.0 12.0 0.00 0.00 0.00 67 1017.2
20260507182004 66 342 2.0 11.0 0.00 0.00 0.00 67 1017.9
20260507181525 67 343 2.0 11.0 0.00 0.00 0.00 68 1017.2
20260507181507 67 40 2.0 10.0 0.00 0.00 0.00 69 1017.9
20260507181015 67 330 3.0 11.0 0.00 0.00 0.00 67 1017.1
20260507181009 67 15 3.0 11.0 0.00 0.00 0.00 67 1017.8
20260507180507 67 17 3.0 12.0 0.00 0.00 0.00 67 1018.1
20260507180504 67 331 4.0 12.0 0.00 0.00 0.00 67 1017.4
20260507180015 66 19 3.0 12.0 0.00 0.00 0.00 68 1018.1
20260507180005 66 11 5.0 12.0 0.00 0.00 0.00 68 1017.4
20260507175508 66 73 1.0 6.0 0.00 0.00 0.00 69 1018.0
20260507175503 66 20 2.0 9.0 0.00 0.00 0.00 69 1017.3
20260507175007 66 291 2.0 7.0 0.00 0.00 0.00 68 1017.9
20260507175003 66 298 2.0 8.0 0.00 0.00 0.00 68 1017.3
20260507174540 66 52 1.0 11.0 0.00 0.00 0.00 69 1018.2
20260507174503 66 338 3.0 11.0 0.00 0.00 0.00 69 1017.5
20260507174007 65 61 2.0 11.0 0.00 0.00 0.00 69 1018.2
20260507174003 65 322 3.0 11.0 0.00 0.00 0.00 69 1017.7
20260507173509 65 352 3.0 8.0 0.00 0.00 0.00 69 1018.5
20260507173503 65 333 4.0 10.0 0.00 0.00 0.00 69 1018.0
20260507173006 65 312 2.0 10.0 0.00 0.00 0.00 72 1018.0
20260507172504 64 61 2.0 8.0 0.00 0.00 0.00 73 1018.7
20260507172004 64 333 4.0 9.0 0.00 0.00 0.00 72 1018.2
20260507171510 64 5 1.0 10.0 0.00 0.00 0.00 72 1019.1
20260507171503 64 336 3.0 10.0 0.00 0.00 0.00 72 1018.3
20260507171007 63 351 3.0 10.0 0.00 0.00 0.00 73 1019.4
20260507171002 63 328 5.0 10.0 0.00 0.00 0.00 73 1018.6
20260507170504 63 334 3.0 10.0 0.00 0.00 0.00 75 1018.8
20260507170012 63 32 3.0 9.0 0.00 0.00 0.00 73 1019.4
20260507170007 63 43 3.0 10.0 0.00 0.00 0.00 73 1018.9
20260507165508 62 42 1.0 9.0 0.00 0.00 0.00 75 1019.8
20260507165505 62 340 1.0 9.0 0.00 0.00 0.00 75 1019.3
20260507165007 62 74 2.0 9.0 0.00 0.00 0.00 75 1020.2
20260507165003 62 352 2.0 9.0 0.00 0.00 0.00 75 1019.5
20260507164508 61 325 3.0 9.0 0.00 0.00 0.00 74 1018.9
20260507164005 61 360 2.0 8.0 0.00 0.00 0.00 74 1019.5
20260507163508 61 90 1.0 6.0 0.00 0.00 0.00 74 1019.4
20260507163504 61 333 3.0 6.0 0.00 0.00 0.00 74 1018.9
20260507163007 61 33 1.0 10.0 0.00 0.00 0.00 76 1019.6
20260507163003 61 290 1.0 10.0 0.00 0.00 0.00 76 1019.0
20260507162511 60 306 3.0 10.0 0.00 0.00 0.00 75 1019.4
20260507162503 60 342 4.0 10.0 0.00 0.00 0.00 75 1018.8
20260507162004 60 330 2.0 9.0 0.00 0.00 0.00 77 1018.6
20260507161506 60 17 2.0 8.0 0.00 0.00 0.00 77 1019.4
20260507161504 60 315 4.0 9.0 0.00 0.00 0.00 77 1018.8
20260507161005 60 34 3.0 11.0 0.00 0.00 0.00 77 1019.3
20260507160504 59 342 3.0 11.0 0.00 0.00 0.00 78 1019.2
20260507160502 59 320 3.0 11.0 0.00 0.00 0.00 78 1018.6
20260507160014 59 331 2.0 10.0 0.00 0.00 0.00 77 1019.5
20260507160008 59 347 2.0 10.0 0.00 0.00 0.00 77 1018.9
20260507155506 59 308 4.0 9.0 0.00 0.00 0.00 77 1019.0
20260507155504 59 304 3.0 9.0 0.00 0.00 0.00 77 1019.6
20260507155004 59 23 2.0 9.0 0.00 0.00 0.00 78 1019.5
20260507154520 59 340 4.0 9.0 0.00 0.00 0.00 78 1019.5
20260507154506 59 312 3.0 9.0 0.00 0.00 0.00 78 1018.9
20260507154009 59 49 1.0 6.0 0.00 0.00 0.00 79 1019.8
20260507154004 59 329 1.0 10.0 0.00 0.00 0.00 79 1019.1
20260507153505 59 17 2.0 6.0 0.00 0.00 0.00 79 1019.7
20260507153023 59 327 2.0 7.0 0.00 0.00 0.00 79 1018.9
20260507153019 59 328 1.0 7.0 0.00 0.00 0.00 79 1019.6
20260507152510 59 22 2.0 7.0 0.00 0.00 0.00 79 1019.7
20260507152503 59 338 2.0 7.0 0.00 0.00 0.00 79 1019.1
20260507152004 59 352 2.0 8.0 0.00 0.00 0.00 79 1018.9
20260507152001 59 344 2.0 7.0 0.00 0.00 0.00 79 1019.6
20260507151514 59 326 2.0 8.0 0.00 0.00 0.00 79 1019.5
20260507151507 59 360 2.0 8.0 0.00 0.00 0.00 79 1018.9
20260507151003 59 343 1.0 8.0 0.00 0.00 0.00 80 1018.9
20260507150504 59 331 3.0 8.0 0.00 0.00 0.00 80 1018.9
20260507150011 59 19 1.0 8.0 0.00 0.00 0.00 80 1019.4
20260507150008 59 315 2.0 8.0 0.00 0.00 0.00 80 1018.7
20260507145507 59 297 1.0 9.0 0.00 0.00 0.00 80 1019.3
20260507145503 59 350 3.0 9.0 0.00 0.00 0.00 80 1018.8
20260507145011 59 351 2.0 12.0 0.00 0.00 0.00 79 1019.3
20260507145007 59 245 3.0 12.0 0.00 0.00 0.00 79 1018.6
20260507144507 59 298 2.0 12.0 0.00 0.00 0.00 82 1018.1
20260507144006 59 352 3.0 12.0 0.00 0.00 0.00 80 1018.9
20260507144003 59 360 4.0 12.0 0.00 0.00 0.00 80 1018.1
20260507143506 59 22 2.0 12.0 0.00 0.00 0.00 80 1018.9
20260507143020 59 315 4.0 11.0 0.00 0.00 0.00 80 1018.7
20260507143005 59 341 4.0 10.0 0.00 0.00 0.00 80 1017.8
20260507142506 59 10 2.0 8.0 0.00 0.00 0.00 81 1018.3
20260507142504 59 325 4.0 8.0 0.00 0.00 0.00 81 1017.7
20260507142006 59 14 1.0 10.0 0.00 0.00 0.00 82 1018.0
20260507141524 59 336 3.0 10.0 0.00 0.00 0.00 81 1018.9
20260507141503 59 340 3.0 10.0 0.00 0.00 0.00 81 1018.2
20260507141010 59 48 4.0 10.0 0.00 0.00 0.00 82 1018.9
20260507141002 59 350 4.0 9.0 0.00 0.00 0.00 82 1018.3
20260507140504 59 323 4.0 10.0 0.00 0.00 0.00 82 1018.3
20260507140017 59 57 2.0 8.0 0.00 0.00 0.00 82 1018.8
20260507140011 59 349 3.0 10.0 0.00 0.00 0.00 82 1018.1
20260507135504 59 333 3.0 12.0 0.00 0.00 0.00 82 1018.8
20260507135502 59 329 4.0 12.0 0.00 0.00 0.00 82 1018.1
20260507135007 59 346 2.0 12.0 0.00 0.00 0.00 83 1018.9
20260507135004 59 319 3.0 12.0 0.00 0.00 0.00 83 1018.3
20260507134512 59 38 2.0 12.0 0.00 0.00 0.00 83 1018.8
20260507134509 59 306 2.0 12.0 0.00 0.00 0.00 83 1018.1
20260507134007 59 16 3.0 12.0 0.00 0.00 0.00 83 1018.6
20260507134003 59 330 3.0 12.0 0.00 0.00 0.00 83 1017.9
20260507133507 59 352 2.0 10.0 0.00 0.00 0.00 83 1018.4
20260507133503 59 327 3.0 10.0 0.00 0.00 0.00 83 1017.7
20260507133018 59 14 2.0 12.0 0.00 0.00 0.00 83 1017.8
20260507133014 59 106 2.0 9.0 0.00 0.00 0.00 83 1018.4
20260507132508 59 342 3.0 10.0 0.00 0.00 0.00 83 1018.6
20260507132504 59 321 5.0 10.0 0.00 0.00 0.00 83 1018.0
20260507132008 59 346 2.0 12.0 0.00 0.00 0.00 83 1018.7
20260507131519 59 314 4.0 11.0 0.00 0.00 0.00 83 1018.0
20260507131517 59 44 3.0 12.0 0.00 0.00 0.00 83 1018.6
20260507131007 59 11 3.0 12.0 0.00 0.00 0.00 83 1018.5
20260507131003 59 19 4.0 12.0 0.00 0.00 0.00 83 1017.9
20260507130507 59 34 5.0 12.0 0.00 0.00 0.00 82 1018.4
20260507130502 59 317 4.0 12.0 0.00 0.00 0.00 82 1017.8
20260507130027 59 17 4.0 12.0 0.00 0.00 0.00 83 1018.5
20260507130012 59 347 4.0 12.0 0.00 0.00 0.00 83 1017.8
20260507125508 59 352 4.0 17.0 0.00 0.00 0.00 83 1018.1
20260507125004 59 26 3.0 17.0 0.00 0.00 0.00 83 1018.7
20260507125002 59 313 4.0 17.0 0.00 0.00 0.00 83 1018.0
20260507124520 59 340 4.0 11.0 0.00 0.00 0.00 83 1017.8
20260507124511 59 12 4.0 14.0 0.00 0.00 0.00 83 1018.5
20260507124004 59 319 2.0 11.0 0.00 0.00 0.00 83 1017.9
20260507123507 59 309 3.0 9.0 0.00 0.00 0.00 83 1018.5
20260507123505 59 331 3.0 11.0 0.00 0.00 0.00 83 1017.9
20260507123018 59 57 3.0 9.0 0.00 0.00 0.00 84 1018.4
20260507123014 59 352 4.0 8.0 0.00 0.00 0.00 84 1017.9
20260507122512 59 21 3.0 14.0 0.00 0.00 0.00 84 1018.6
20260507122502 59 345 2.0 14.0 0.00 0.00 0.00 84 1017.9
20260507122008 59 122 2.0 14.0 0.00 0.00 0.00 84 1018.2
20260507122006 59 328 3.0 14.0 0.00 0.00 0.00 84 1017.6
20260507121521 59 39 5.0 12.0 0.00 0.00 0.00 85 1018.2
20260507121516 59 346 5.0 11.0 0.00 0.00 0.00 85 1017.6
20260507121007 59 42 4.0 12.0 0.00 0.00 0.00 85 1017.9
20260507120509 59 309 3.0 12.0 0.00 0.00 0.00 86 1017.2
20260507120504 59 360 4.0 12.0 0.00 0.00 0.00 86 1017.8
20260507120028 59 351 2.0 10.0 0.00 0.00 0.00 86 1017.7
20260507120021 59 338 3.0 10.0 0.00 0.00 0.00 86 1017.1
20260507115509 59 352 2.0 11.0 0.00 0.00 0.00 86 1017.6
20260507115503 59 333 3.0 9.0 0.00 0.00 0.00 86 1017.0
20260507115012 59 350 2.0 11.0 0.00 0.00 0.00 86 1017.7
20260507115001 59 318 3.0 11.0 0.00 0.00 0.00 86 1017.1
20260507114516 59 5 3.0 11.0 0.00 0.00 0.00 85 1017.7
20260507114508 59 330 4.0 11.0 0.00 0.00 0.00 85 1017.1
20260507114005 59 304 3.0 12.0 0.00 0.00 0.00 85 1017.1
20260507113508 59 350 4.0 12.0 0.00 0.00 0.00 86 1017.6
20260507113503 59 346 6.0 11.0 0.00 0.00 0.00 86 1017.0
20260507113017 59 9 3.0 8.0 0.00 0.00 0.00 86 1017.7
20260507113010 59 306 3.0 11.0 0.00 0.00 0.00 86 1017.3
20260507112511 59 44 1.0 7.0 0.00 0.00 0.00 86 1017.7
20260507112505 59 9 1.0 8.0 0.00 0.00 0.00 86 1017.1
20260507112008 59 46 2.0 8.0 0.00 0.00 0.00 86 1017.8
20260507112006 59 360 3.0 8.0 0.00 0.00 0.00 86 1017.2
20260507111520 59 293 3.0 14.0 0.00 0.00 0.00 86 1017.3
20260507111513 59 301 1.0 14.0 0.00 0.00 0.00 86 1016.7
20260507111006 59 340 2.0 14.0 0.00 0.00 0.00 87 1016.7
20260507110506 59 213 2.0 8.0 0.00 0.00 0.00 86 1017.3
20260507110023 59 9 3.0 9.0 0.00 0.00 0.00 87 1017.5
20260507110016 59 5 3.0 9.0 0.00 0.00 0.00 87 1017.0
20260507105506 59 331 2.0 9.0 0.00 0.00 0.00 87 1016.6
20260507105504 59 339 2.0 9.0 0.00 0.00 0.00 87 1017.2
20260507105007 59 331 2.0 12.0 0.00 0.00 0.00 87 1016.5
20260507104522 59 352 1.0 12.0 0.00 0.00 0.00 87 1017.0
20260507104518 59 339 2.0 12.0 0.00 0.00 0.00 87 1016.4
20260507104010 59 329 2.0 8.0 0.00 0.00 0.00 87 1016.7
20260507103506 59 328 1.0 6.0 0.00 0.00 0.00 88 1017.1
20260507103501 59 22 3.0 6.0 0.00 0.00 0.00 88 1016.7
20260507103025 59 360 3.0 9.0 0.00 0.00 0.00 88 1016.7
20260507103011 59 10 1.0 8.0 0.00 0.00 0.00 88 1017.2
20260507102504 59 24 2.0 8.0 0.00 0.00 0.00 87 1017.2
20260507102007 59 328 2.0 5.0 0.00 0.00 0.00 87 1016.8
20260507101523 59 20 1.0 9.0 0.00 0.00 0.00 87 1017.3
20260507101517 59 309 1.0 9.0 0.00 0.00 0.00 87 1016.8
20260507101009 59 19 2.0 9.0 0.00 0.00 0.00 87 1017.2
20260507101006 59 346 2.0 9.0 0.00 0.00 0.00 87 1016.7
20260507100507 59 13 2.0 9.0 0.00 0.00 0.00 87 1017.1
20260507100505 59 327 2.0 9.0 0.00 0.00 0.00 87 1016.6
20260507100030 59 349 1.0 4.0 0.00 0.00 0.00 87 1017.1
20260507100026 59 349 2.0 8.0 0.00 0.00 0.00 87 1016.7
20260507095509 59 325 1.0 8.0 0.00 0.00 0.00 87 1016.6
20260507095506 59 53 1.0 8.0 0.00 0.00 0.00 87 1017.2
20260507095008 59 83 2.0 8.0 0.00 0.00 0.00 87 1016.8
20260507095006 59 329 4.0 8.0 0.00 0.00 0.00 87 1016.4
20260507094526 59 345 3.0 8.0 0.00 0.00 0.00 86 1016.7
20260507094512 59 327 2.0 8.0 0.00 0.00 0.00 86 1016.2
20260507094007 59 327 2.0 8.0 0.00 0.00 0.00 86 1016.3
20260507093507 59 327 2.0 4.0 0.00 0.00 0.00 86 1016.3
20260507093031 59 55 0.0 4.0 0.00 0.00 0.00 86 1016.9
20260507093020 59 313 0.0 4.0 0.00 0.00 0.00 86 1016.3
20260507092509 59 298 0.0 4.0 0.00 0.00 0.00 86 1016.5
20260507092507 59 327 1.0 6.0 0.00 0.00 0.00 86 1015.9
20260507092011 59 295 1.0 4.0 0.00 0.00 0.00 86 1016.2
20260507092006 59 331 2.0 6.0 0.00 0.00 0.00 86 1015.5
20260507091524 60 328 2.0 5.0 0.00 0.00 0.00 86 1015.3
20260507091517 60 36 1.0 4.0 0.00 0.00 0.00 86 1016.0
20260507091004 60 336 2.0 5.0 0.00 0.00 0.00 85 1015.6
20260507090510 60 21 1.0 3.0 0.00 0.00 0.00 86 1016.3
20260507090506 60 325 2.0 5.0 0.00 0.00 0.00 86 1015.7
20260507090024 60 352 1.0 3.0 0.00 0.00 0.00 86 1016.2
20260507090004 60 333 1.0 5.0 0.00 0.00 0.00 86 1015.7
20260507085508 60 336 1.0 5.0 0.00 0.00 0.00 85 1016.5
20260507085503 60 327 2.0 9.0 0.00 0.00 0.00 85 1015.9
20260507085005 60 275 0.0 5.0 0.00 0.00 0.00 86 1016.6
20260507085002 60 318 0.0 9.0 0.00 0.00 0.00 86 1016.0
20260507084543 60 360 2.0 5.0 0.00 0.00 0.00 85 1016.3
20260507084503 60 360 4.0 9.0 0.00 0.00 0.00 85 1015.8
20260507084010 60 232 1.0 5.0 0.00 0.00 0.00 85 1016.4
20260507084003 60 330 2.0 5.0 0.00 0.00 0.00 85 1015.8
20260507083508 60 352 1.0 7.0 0.00 0.00 0.00 85 1016.3
20260507083503 60 324 2.0 7.0 0.00 0.00 0.00 85 1015.6
20260507083025 60 360 2.0 7.0 0.00 0.00 0.00 85 1016.1
20260507083002 60 327 2.0 7.0 0.00 0.00 0.00 85 1015.5
20260507082509 60 315 0.0 8.0 0.00 0.00 0.00 85 1016.0
20260507082504 60 333 1.0 9.0 0.00 0.00 0.00 85 1015.3
20260507082011 60 317 2.0 8.0 0.00 0.00 0.00 84 1016.0
20260507082005 60 342 2.0 9.0 0.00 0.00 0.00 84 1015.4
20260507081515 60 331 1.0 6.0 0.00 0.00 0.00 84 1015.4
20260507081012 60 316 1.0 6.0 0.00 0.00 0.00 84 1016.1
20260507081003 60 348 2.0 6.0 0.00 0.00 0.00 84 1015.5
20260507080505 60 81 1.0 6.0 0.00 0.00 0.00 84 1015.9
20260507080503 60 61 1.0 6.0 0.00 0.00 0.00 84 1015.2
20260507080017 60 287 1.0 6.0 0.00 0.00 0.00 84 1016.1
20260507080011 60 337 1.0 5.0 0.00 0.00 0.00 84 1015.4
20260507075508 60 9 1.0 5.0 0.00 0.00 0.00 84 1015.9
20260507075502 60 325 2.0 9.0 0.00 0.00 0.00 84 1015.2
20260507075013 60 179 2.0 9.0 0.00 0.00 0.00 84 1015.8
20260507075002 60 346 2.0 9.0 0.00 0.00 0.00 84 1015.2
20260507074524 60 335 3.0 10.0 0.00 0.00 0.00 83 1015.8
20260507074504 60 336 4.0 10.0 0.00 0.00 0.00 83 1015.2
20260507074007 60 86 1.0 10.0 0.00 0.00 0.00 83 1015.4
20260507074004 60 342 1.0 10.0 0.00 0.00 0.00 83 1016.1